Regional Weather Roundup
Issued by NWS

Home | Current Version | Previous Version | Graphics & Text | Print | Product List | Glossary On
Versions: 1 2 3 4 5 6 7 8 9 10 11 12 13 14 15 16 17 18 19 20 21 22 23 24 25 26 27 28 29 30 31 32 33 34 35 36 37 38 39 40 41 42 43 44 45 46 47 48 49 50
000
ASUS43 KTOP 040508
RWRKS

WEATHER ROUNDUP FOR KANSAS
NATIONAL WEATHER SERVICE GOODLAND KS
1200 AM CDT MON MAY 04 2015

NOTE:  "FAIR" INDICATES FEW OR NO CLOUDS BELOW 12,000 FEET WITH NO
SIGNIFICANT WEATHER AND/OR OBSTRUCTIONS TO VISIBILITY.

KSZ001>006-013>018-027>032-041>047-040600-
NORTHWEST KANSAS

CITY           SKY/WX    TMP DP  RH WIND       PRES   REMARKS
GOODLAND       CLOUDY    63  48  58 NW17      30.01R
HAYS           CLOUDY    73  46  38 NW24      29.87R
HILL CITY      CLOUDY    62  55  77 W3        29.95R
RUSSELL        CLOUDY    70  51  51 W14G23    29.85R
$$

KSZ061>065-074>080-084>089-040600-
SOUTHWEST KANSAS

CITY           SKY/WX    TMP DP  RH WIND       PRES   REMARKS
DODGE CITY     CLOUDY    65  51  60 SW26G44   29.95R
ELKHART          N/A     59  50  72 E10         N/A
GARDEN CITY    LGT RAIN  60  54  80 S6        29.99F
GREAT BEND     CLOUDY    70  48  46 S12       29.87
LIBERAL        CLOUDY    64  52  63 NE6       29.96R
PRATT          CLOUDY    68  48  49 S6        29.91F
$$

KSZ066>073-081>083-090>101-040600-
SOUTHEAST KANSAS

CITY           SKY/WX    TMP DP  RH WIND       PRES   REMARKS
CHANUTE        CLEAR     63  56  78 S7        29.96R
COFFEYVILLE    CLEAR     68  56  65 S8        29.96R
HUTCHINSON     CLOUDY    70  57  63 S13       29.89
MEDICINE LODGE   N/A     69  59  70 S14       29.91S
NEWTON         CLOUDY    66  52  59 S12       29.94R
PARSONS        CLEAR     66  57  72 S3        29.97R
WICHITA INTL   CLOUDY    68  54  60 S15       29.92R
WICHITA JABRA  CLOUDY    68  53  58 S14       29.92R
WICHITA MCCONL CLOUDY    68  54  59 S14       29.92R
WINFIELD       CLOUDY    66  53  63 S10       29.96R
$$

KSZ007>012-019>026-033>040-048>060-102>105-040600-
NORTHEAST KANSAS

CITY           SKY/WX    TMP DP  RH WIND       PRES   REMARKS
CONCORDIA      MOCLDY    71  60  68 S20G33    29.82R
EMPORIA        CLEAR     66  56  70 S14       29.90S
LAWRENCE       MOCLDY    70  57  63 S13       29.90S
MANHATTAN      PTCLDY    71  58  63 S13       29.85F
MARYSVILLE     MOCLDY    72  59  64 S13G20    29.83R
OLATHE IND     MOCLDY    69  56  62 S16       29.93R
OLATHE EXE     MOCLDY    69  57  65 S10       29.92S
SALINA         CLOUDY    71  59  65 S13G23    29.84F
TOPEKA BILLARD MOCLDY    72  57  59 S17G24    29.88S
TOPEKA FORBES  PTCLDY    71  57  61 S14       29.88F
$$



USA.gov is the U.S. government's official web portal to all federal, state and local government web resources and services.